Weather Roundup
Issued by NWS

Home | Current Version | Previous Version | Text Only | Print | Product List | Glossary On
Versions: 1 2 3 4 5 6 7 8 9 10 11 12 13 14 15 16 17 18 19 20 21 22 23 24 25 26 27 28 29 30 31 32 33 34 35 36 37 38 39 40 41 42 43 44 45 46 47 48 49 50
000
NZUS93 KARX 302059
HRRWXR

CURRENT HOURLY OBSERVATIONS ACROSS
MUCH OF THE UPPER MISSISSIPPI VALLEY
NATIONAL WEATHER SERVICE LA CROSSE WI
400 PM CDT THU OCT 30 2014


...SOUTHEAST MINNESOTA...


CITY           SKY/WX    TMP DP  RH WIND       PRES   REMARKS
ROCHESTER      CLOUDY    46  38  73 N7        30.09R
ROCHESTER/MAYO CLOUDY    46  37  72 NW3       30.08R
WINONA         CLOUDY    48  39  71 CALM      30.07S
AUSTIN         CLOUDY    48  37  66 N6        30.08R
ALBERT LEA     CLOUDY    52  37  58 N12       30.08R
DODGE CENTER   CLOUDY    46  39  76 N6        30.09R
PRESTON        CLOUDY    46  37  72 N6        30.07R
OWATONNA       MOSUNNY   48  36  61 NW8       30.10R
FARIBAULT      CLOUDY    48  36  61 N6        30.11R
$$

...ELSEWHERE IN MINNESOTA...


CITY           SKY/WX    TMP DP  RH WIND       PRES   REMARKS
MINNEAPOLIS    CLOUDY    48  35  60 NW13      30.12R
INTNL FALLS    PTSUNNY   33  24  69 NW20G31   30.18R WCI  21
DULUTH         PTSUNNY   40  33  76 NW12G22   30.08R WCI  33
RED WING       PTSUNNY   50  37  62 NW5       30.08R
REDWOOD FALLS  CLOUDY    47  39  74 N15G23    30.17R
MANKATO        CLOUDY    50  34  53 N16       30.11R
WORTHINGTON    CLOUDY    46  37  71 N22G31    30.17R
FAIRMONT       CLOUDY    52  28  40 N18G25    30.11R
$$

...SOUTHWEST WISCONSIN...


CITY           SKY/WX    TMP DP  RH WIND       PRES   REMARKS
LA CROSSE      CLOUDY    47  37  68 S3        30.07S
PRAIRIE DU CHI CLOUDY    49  36  61 CALM      30.06S
BOSCOBEL       CLOUDY    50  36  58 CALM      30.07S
LONE ROCK      NOT AVBL
PLATTEVILLE    CLOUDY    49  37  63 NW3       30.07R
FORT MC COY    CLOUDY    47  35  63 SW3       30.06F
VIROQUA        CLOUDY    45  36  70 W5        30.06S
WIS DELLS      CLOUDY    47  35  60 W9        30.05S
$$

...ELSEWHERE IN WISCONSIN...


CITY           SKY/WX    TMP DP  RH WIND       PRES   REMARKS
MILWAUKEE      PTSUNNY   51  32  48 W8        30.04S
MADISON        CLOUDY    50  34  54 W6        30.06R
GREEN BAY      CLOUDY    47  36  65 W7        30.02S
EAU CLAIRE     NOT AVBL
BLACK RVR FLS  CLOUDY    50  33  53 NW5       30.05S
MEDFORD        DRIZZLE   41  33  75 NW8       30.03S
WAUSAU         CLOUDY    44  33  65 W8        30.02R
WIS RAPIDS     CLOUDY    49  34  56 NW12      30.05R
MARSHFIELD     CLOUDY    46  34  62 NW12      30.04R
RICE LAKE      CLOUDY    42  34  72 NW8       30.09S
$$

...NORTHEAST IOWA...


CITY           SKY/WX    TMP DP  RH WIND       PRES   REMARKS
DECORAH        CLOUDY    46  37  71 CALM      30.05S
MASON CITY     CLOUDY    53  38  56 N5        30.08R
CHARLES CITY   CLOUDY    52  37  58 N5        30.06R
OELWEIN        CLOUDY    54  37  54 N5        30.05S
$$

...ELSEWHERE IN IOWA...


CITY           SKY/WX    TMP DP  RH WIND       PRES   REMARKS
DES MOINES     MOSUNNY   63  39  41 N9        30.02R
IOWA CITY      CLOUDY    55  36  48 SE7       30.04S
FORT DODGE     SUNNY     55  37  50 N8        30.06R
$$

...NORTHERN ILLINOIS...


CITY           SKY/WX    TMP DP  RH WIND       PRES   REMARKS
CHICAGO-OHARE  CLOUDY    50  35  56 W7        30.05S
CHICAGO-MIDWAY CLOUDY    52  36  54 SW10      30.06S
MOLINE         CLOUDY    52  38  58 SE5       30.04S
ROCKFORD       CLOUDY    51  35  54 W5        30.08R
PEORIA         CLOUDY    49  42  77 E5        30.05F
$$

NOTE: "FAIR" INDICATES FEW OR NO CLOUDS BELOW 12,000 FEET WITH NO
SIGNIFICANT WEATHER AND/OR OBSTRUCTIONS TO VISIBILITY. WIND
SPEEDS ARE IN MILES-PER-HOUR.



USA.gov is the U.S. government's official web portal to all federal, state and local government web resources and services.